Time,TemperatureF,DewpointF,PressureIn,WindDirection,WindDirectionDegrees,WindSpeedMPH,WindSpeedGustMPH,Humidity,HourlyPrecipIn,Conditions,Clouds,dailyrainin,SoftwareType,DateUTC
2013-07-19 00:01:00,65.0,59.0,29.89,SW,225,0.0,0.0,81,0.00,,,0.00,,2013-07-19 07:01:00,
2013-07-19 00:43:00,64.0,57.0,29.88,SW,225,0.0,0.0,79,0.00,,,0.00,,2013-07-19 07:43:00,
2013-07-19 00:53:00,64.0,58.0,29.87,SW,225,0.0,0.0,80,0.00,,,0.00,,2013-07-19 07:53:00,
2013-07-19 01:01:00,64.0,58.0,29.87,SW,225,0.0,0.0,81,0.00,,,0.00,,2013-07-19 08:01:00,
2013-07-19 01:32:00,64.0,58.0,29.87,SW,225,0.0,0.0,80,0.00,,,0.00,,2013-07-19 08:32:00,
2013-07-19 01:43:00,64.0,58.0,29.86,SW,225,0.0,0.0,81,0.00,,,0.00,,2013-07-19 08:43:00,
2013-07-19 01:52:00,63.0,56.0,29.86,SW,225,0.0,1.0,78,0.00,,,0.00,,2013-07-19 08:52:00,
2013-07-19 02:02:00,63.0,56.0,29.86,SW,225,0.0,0.0,79,0.00,,,0.00,,2013-07-19 09:02:00,
2013-07-19 02:11:00,63.0,57.0,29.86,SW,225,0.0,0.0,80,0.00,,,0.00,,2013-07-19 09:11:00,
2013-07-19 02:32:00,62.0,56.0,29.86,SW,225,0.0,0.0,81,0.00,,,0.00,,2013-07-19 09:32:00,
2013-07-19 02:43:00,62.0,57.0,29.86,SW,225,0.0,0.0,83,0.00,,,0.00,,2013-07-19 09:43:00,
2013-07-19 02:52:00,61.0,56.0,29.86,SW,225,0.0,0.0,84,0.00,,,0.00,,2013-07-19 09:52:00,
2013-07-19 03:01:00,61.0,56.0,29.86,SW,225,0.0,0.0,85,0.00,,,0.00,,2013-07-19 10:01:00,
2013-07-19 03:11:00,61.0,57.0,29.86,SW,225,0.0,0.0,86,0.00,,,0.00,,2013-07-19 10:11:00,
2013-07-19 03:43:00,60.0,56.0,29.86,SW,225,0.0,0.0,87,0.00,,,0.00,,2013-07-19 10:43:00,
2013-07-19 03:52:00,60.0,56.0,29.86,SW,225,0.0,0.0,87,0.00,,,0.00,,2013-07-19 10:52:00,
2013-07-19 04:02:00,60.0,56.0,29.86,SW,225,0.0,0.0,88,0.00,,,0.00,,2013-07-19 11:02:00,
2013-07-19 04:11:00,60.0,56.0,29.86,SW,225,0.0,0.0,88,0.00,,,0.00,,2013-07-19 11:11:00,
2013-07-19 04:22:00,60.0,57.0,29.86,SW,225,0.0,0.0,90,0.00,,,0.00,,2013-07-19 11:22:00,
2013-07-19 04:32:00,60.0,57.0,29.86,SW,225,0.0,0.0,90,0.00,,,0.00,,2013-07-19 11:32:00,
2013-07-19 04:42:00,59.0,56.0,29.86,SW,225,0.0,0.0,91,0.00,,,0.00,,2013-07-19 11:42:00,
2013-07-19 04:52:00,59.0,56.0,29.86,SW,225,0.0,0.0,91,0.00,,,0.00,,2013-07-19 11:52:00,
2013-07-19 05:01:00,59.0,56.0,29.86,SW,225,0.0,0.0,91,0.00,,,0.00,,2013-07-19 12:01:00,
2013-07-19 05:12:00,59.0,56.0,29.87,SW,225,0.0,0.0,91,0.00,,,0.00,,2013-07-19 12:12:00,
2013-07-19 05:22:00,59.0,57.0,29.87,SW,225,0.0,0.0,92,0.00,,,0.00,,2013-07-19 12:22:00,
2013-07-19 05:43:00,58.0,55.0,29.87,SW,225,0.0,0.0,91,0.00,,,0.00,,2013-07-19 12:43:00,
2013-07-19 06:53:00,58.0,56.0,29.88,SW,225,0.0,0.0,93,0.00,,,0.00,,2013-07-19 13:53:00,
2013-07-19 07:43:00,60.0,58.0,29.89,SW,225,0.0,0.0,92,0.00,,,0.00,,2013-07-19 14:43:00,
2013-07-19 07:52:00,60.0,58.0,29.89,SW,225,0.0,0.0,92,0.00,,,0.00,,2013-07-19 14:52:00,
2013-07-19 08:43:00,63.0,59.0,29.90,SW,225,0.0,0.0,86,0.00,,,0.00,,2013-07-19 15:43:00,
2013-07-19 09:01:00,64.0,59.0,29.90,SW,225,0.0,0.0,84,0.00,,,0.00,,2013-07-19 16:01:00,
2013-07-19 09:11:00,64.0,59.0,29.90,SW,225,0.0,0.0,84,0.00,,,0.00,,2013-07-19 16:11:00,
2013-07-19 09:32:00,67.0,60.0,29.90,SW,225,0.0,0.0,77,0.00,,,0.00,,2013-07-19 16:32:00,
2013-07-19 09:42:00,68.0,60.0,29.90,SW,225,0.0,0.0,75,0.00,,,0.00,,2013-07-19 16:42:00,
2013-07-19 09:52:00,69.0,60.0,29.90,SW,225,0.0,0.0,72,0.00,,,0.00,,2013-07-19 16:52:00,
2013-07-19 10:02:00,70.0,60.0,29.89,SW,225,0.0,0.0,71,0.00,,,0.00,,2013-07-19 17:02:00,
2013-07-19 10:32:00,74.0,60.0,29.89,SW,225,0.0,1.0,62,0.00,,,0.00,,2013-07-19 17:32:00,
2013-07-19 11:32:00,80.0,60.0,29.89,SW,226,0.0,6.0,51,0.00,,,0.00,,2013-07-19 18:32:00,
2013-07-19 11:52:00,82.0,60.0,29.88,WSW,254,3.0,11.0,47,0.00,,,0.00,,2013-07-19 18:52:00,
2013-07-19 12:43:00,86.0,60.0,29.87,WSW,250,4.0,9.0,41,0.00,,,0.00,,2013-07-19 19:43:00,
2013-07-19 14:42:00,89.0,58.0,29.86,WSW,241,1.0,9.0,35,0.00,,,0.00,,2013-07-19 21:42:00,
2013-07-19 14:52:00,89.0,57.0,29.86,SSW,194,1.0,9.0,34,0.00,,,0.00,,2013-07-19 21:52:00,
2013-07-19 15:01:00,88.0,58.0,29.85,South,186,1.0,8.0,36,0.00,,,0.00,,2013-07-19 22:01:00,
2013-07-19 15:42:00,89.0,58.0,29.84,WSW,246,1.0,8.0,35,0.00,,,0.00,,2013-07-19 22:42:00,
2013-07-19 15:52:00,89.0,58.0,29.84,SW,217,2.0,7.0,35,0.00,,,0.00,,2013-07-19 22:52:00,
2013-07-19 16:43:00,89.0,59.0,29.83,SSW,213,2.0,7.0,36,0.00,,,0.00,,2013-07-19 23:43:00,
2013-07-19 16:52:00,89.0,58.0,29.83,SSW,213,1.0,7.0,35,0.00,,,0.00,,2013-07-19 23:52:00,
2013-07-19 17:01:00,88.0,58.0,29.83,WSW,257,1.0,8.0,36,0.00,,,0.00,,2013-07-20 00:01:00,
2013-07-19 17:11:00,88.0,58.0,29.83,SW,214,0.0,6.0,36,0.00,,,0.00,,2013-07-20 00:11:00,
2013-07-19 17:43:00,87.0,58.0,29.82,SW,217,1.0,7.0,38,0.00,,,0.00,,2013-07-20 00:43:00,
2013-07-19 17:52:00,87.0,58.0,29.81,SW,214,2.0,5.0,37,0.00,,,0.00,,2013-07-20 00:52:00,
2013-07-19 19:01:00,83.0,59.0,29.80,SW,227,1.0,4.0,44,0.00,,,0.00,,2013-07-20 02:01:00,
2013-07-19 19:11:00,82.0,59.0,29.80,SW,229,1.0,5.0,45,0.00,,,0.00,,2013-07-20 02:11:00,
2013-07-19 19:52:00,79.0,59.0,29.81,WSW,237,0.0,1.0,50,0.00,,,0.00,,2013-07-20 02:52:00,
2013-07-19 20:01:00,76.0,59.0,29.82,WSW,238,0.0,2.0,55,0.00,,,0.00,,2013-07-20 03:01:00,
2013-07-19 20:11:00,74.0,58.0,29.82,WSW,237,0.0,1.0,58,0.00,,,0.00,,2013-07-20 03:11:00,
2013-07-19 20:44:00,70.0,58.0,29.83,WSW,238,0.0,1.0,65,0.00,,,0.00,,2013-07-20 03:44:00,
2013-07-19 20:52:00,69.0,58.0,29.84,WSW,238,0.0,1.0,68,0.00,,,0.00,,2013-07-20 03:52:00,
2013-07-19 21:01:00,68.0,58.0,29.85,WSW,238,0.0,1.0,70,0.00,,,0.00,,2013-07-20 04:01:00,
2013-07-19 21:11:00,68.0,58.0,29.85,WSW,238,0.0,1.0,71,0.00,,,0.00,,2013-07-20 04:11:00,
2013-07-19 21:33:00,66.0,57.0,29.86,WSW,238,0.0,0.0,74,0.00,,,0.00,,2013-07-20 04:33:00,
2013-07-19 21:52:00,65.0,57.0,29.87,WSW,238,0.0,0.0,76,0.00,,,0.00,,2013-07-20 04:52:00,
2013-07-19 22:02:00,65.0,58.0,29.86,WSW,237,0.0,0.0,77,0.00,,,0.00,,2013-07-20 05:02:00,
2013-07-19 22:11:00,65.0,58.0,29.86,WSW,237,0.0,0.0,77,0.00,,,0.00,,2013-07-20 05:11:00,
2013-07-19 22:32:00,64.0,57.0,29.87,WSW,238,0.0,0.0,79,0.00,,,0.00,,2013-07-20 05:32:00,
2013-07-19 22:52:00,64.0,58.0,29.86,WSW,237,0.0,0.0,80,0.00,,,0.00,,2013-07-20 05:52:00,
2013-07-19 23:01:00,63.0,57.0,29.86,WSW,237,0.0,0.0,80,0.00,,,0.00,,2013-07-20 06:01:00,
2013-07-19 23:43:00,63.0,57.0,29.86,WSW,237,0.0,0.0,82,0.00,,,0.00,,2013-07-20 06:43:00,
2013-07-19 23:52:00,63.0,57.0,29.86,WSW,238,0.0,0.0,82,0.00,,,0.00,,2013-07-20 06:52:00,